Satellite-Ground Cal/Val Site Overpasses Predictions

Prediction of Satellite NPP Overpassing Cal/Val Site: Antarctic Dome C

Ground Cal/Val Site Location: Latitude: -75.10, Longitude: 123.35; Satellite-Ground Site NADIR distance within 100 km.

Table of predicted overpasses for the next 14.0 days since TLE Epoch: 9/17/2012
Interval Starting Time Ending Time Minimum Distance Time Minimum Distance (km)
1 09/17/2012 14:59:08 09/17/2012 14:59:32 09/17/2012 14:59:20 56.59
2 09/18/2012 14:40:17 09/18/2012 14:40:42 09/18/2012 14:40:30 52.59
3 09/19/2012 07:41:58 09/19/2012 07:42:18 09/19/2012 07:42:08 71.12
4 09/20/2012 07:23:05 09/20/2012 07:23:32 09/20/2012 07:23:19 36.89
5 09/22/2012 15:05:30 09/22/2012 15:05:39 09/22/2012 15:05:34 94.11
6 09/23/2012 14:46:29 09/23/2012 14:46:57 09/23/2012 14:46:43 17.09
7 09/25/2012 07:29:16 09/25/2012 07:29:46 09/25/2012 07:29:31 1.07
8 09/28/2012 14:52:41 09/28/2012 14:53:10 09/28/2012 14:52:56 19.10
9 09/29/2012 14:33:58 09/29/2012 14:34:12 09/29/2012 14:34:05 87.95
10 09/30/2012 07:35:30 09/30/2012 07:35:57 09/30/2012 07:35
